Total_Precipitation_Accumulation
0.02 0.06 0.25 0.34 0.29 0.24 0.24 0.25 0.25 0.21 0.19 0.20 0.22 0.23 0.24 0.25 0.27 0.27 0.26 0.27 0.26 0.26 0.28 0.31 0.30 0.28 0.25 0.22 0.21 0.21 0.19 0.18 0.17 0.19 0.22 0.26 0.28 0.25 0.24 0.23 0.21 0.22 0.31
0.04 0.07 0.21 0.27 0.24 0.22 0.24 0.24 0.21 0.17 0.15 0.16 0.16 0.17 0.18 0.19 0.22 0.24 0.25 0.27 0.28 0.28 0.27 0.27 0.26 0.24 0.22 0.22 0.23 0.21 0.19 0.16 0.13 0.13 0.14 0.15 0.23 0.28 0.28 0.29 0.28 0.35 0.35
0.03 0.06 0.16 0.22 0.21 0.22 0.24 0.21 0.17 0.14 0.13 0.13 0.13 0.14 0.15 0.16 0.18 0.20 0.21 0.22 0.23 0.25 0.25 0.24 0.24 0.25 0.22 0.22 0.24 0.22 0.20 0.15 0.10 0.08 0.09 0.13 0.23 0.29 0.29 0.29 0.30 0.35 0.36
0.01 0.04 0.10 0.17 0.20 0.22 0.23 0.22 0.18 0.15 0.14 0.13 0.13 0.14 0.14 0.15 0.14 0.13 0.16 0.18 0.22 0.25 0.28 0.26 0.25 0.27 0.23 0.21 0.22 0.21 0.22 0.18 0.11 0.07 0.03 0.09 0.26 0.35 0.36 0.37 0.34 0.36 0.38
0.01 0.03 0.08 0.16 0.20 0.23 0.24 0.23 0.20 0.18 0.16 0.16 0.15 0.15 0.15 0.15 0.13 0.12 0.11 0.12 0.20 0.25 0.27 0.29 0.28 0.28 0.27 0.24 0.22 0.22 0.24 0.22 0.13 0.05 0.02 0.04 0.20 0.41 0.40 0.38 0.36 0.37 0.38
0.01 0.02 0.08 0.17 0.23 0.25 0.26 0.26 0.22 0.21 0.21 0.19 0.17 0.17 0.18 0.18 0.14 0.12 0.10 0.09 0.11 0.17 0.23 0.27 0.30 0.33 0.33 0.26 0.24 0.27 0.31 0.29 0.13 0.03 0.02 0.04 0.17 0.41 0.41 0.36 0.36 0.35 0.35
0.02 0.04 0.10 0.19 0.25 0.27 0.28 0.29 0.26 0.25 0.25 0.23 0.19 0.19 0.19 0.18 0.17 0.15 0.12 0.10 0.08 0.09 0.14 0.20 0.24 0.30 0.33 0.29 0.28 0.31 0.39 0.31 0.10 0.07 0.05 0.05 0.17 0.50 0.62 0.50 0.40 0.35 0.34
0.02 0.05 0.11 0.22 0.28 0.30 0.32 0.34 0.32 0.31 0.34 0.30 0.26 0.23 0.20 0.19 0.18 0.18 0.14 0.12 0.11 0.10 0.11 0.13 0.18 0.25 0.30 0.31 0.31 0.35 0.39 0.24 0.09 0.10 0.11 0.11 0.26 0.65 0.77 0.76 0.60 0.42 0.35
0.02 0.04 0.10 0.20 0.29 0.34 0.37 0.37 0.36 0.35 0.35 0.33 0.30 0.25 0.21 0.18 0.20 0.21 0.17 0.13 0.12 0.12 0.11 0.10 0.10 0.13 0.20 0.28 0.32 0.30 0.28 0.19 0.10 0.17 0.15 0.21 0.29 0.67 0.80 0.88 0.79 0.58 0.44
0.05 0.06 0.12 0.22 0.28 0.33 0.38 0.41 0.38 0.36 0.36 0.35 0.32 0.29 0.23 0.19 0.19 0.19 0.15 0.11 0.11 0.12 0.11 0.10 0.10 0.09 0.10 0.13 0.16 0.17 0.13 0.10 0.09 0.16 0.28 0.27 0.30 0.70 0.86 0.91 0.83 0.72 0.59
0.09 0.09 0.14 0.25 0.32 0.36 0.39 0.38 0.42 0.43 0.43 0.40 0.37 0.32 0.27 0.20 0.14 0.11 0.08 0.09 0.10 0.11 0.10 0.10 0.11 0.10 0.08 0.05 0.04 0.06 0.04 0.02 0.06 0.18 0.24 0.25 0.41 0.81 0.92 0.92 0.86 0.78 0.71
0.10 0.11 0.15 0.23 0.31 0.38 0.39 0.41 0.48 0.48 0.46 0.42 0.37 0.34 0.29 0.23 0.15 0.10 0.09 0.11 0.12 0.11 0.11 0.12 0.13 0.10 0.07 0.04 0.07 0.09 0.03 0.01 0.02 0.05 0.08 0.14 0.44 0.85 0.98 0.92 0.93 0.89 0.84
0.11 0.14 0.16 0.23 0.30 0.39 0.42 0.42 0.44 0.44 0.44 0.44 0.42 0.38 0.35 0.30 0.25 0.21 0.17 0.17 0.13 0.11 0.14 0.16 0.16 0.16 0.17 0.17 0.18 0.16 0.09 0.06 0.04 0.03 0.03 0.09 0.24 0.47 0.73 0.86 0.94 0.97 0.97
0.15 0.18 0.21 0.26 0.33 0.38 0.43 0.46 0.43 0.42 0.42 0.41 0.42 0.40 0.35 0.30 0.27 0.24 0.22 0.17 0.13 0.13 0.15 0.17 0.16 0.16 0.16 0.15 0.16 0.15 0.13 0.11 0.08 0.07 0.04 0.06 0.12 0.18 0.33 0.55 0.73 0.86 0.96
0.17 0.21 0.25 0.31 0.35 0.39 0.45 0.49 0.50 0.44 0.41 0.38 0.38 0.36 0.33 0.31 0.25 0.17 0.12 0.09 0.07 0.08 0.08 0.07 0.06 0.07 0.08 0.10 0.11 0.11 0.13 0.14 0.14 0.12 0.10 0.09 0.09 0.10 0.15 0.29 0.48 0.69 0.86
0.16 0.20 0.26 0.32 0.37 0.42 0.44 0.44 0.46 0.49 0.45 0.42 0.38 0.33 0.31 0.29 0.26 0.21 0.15 0.10 0.06 0.04 0.04 0.03 0.02 0.02 0.02 0.03 0.04 0.06 0.09 0.10 0.12 0.13 0.13 0.14 0.13 0.11 0.13 0.18 0.29 0.55 0.76
0.16 0.20 0.29 0.34 0.40 0.45 0.48 0.48 0.47 0.50 0.51 0.46 0.43 0.41 0.35 0.27 0.23 0.21 0.18 0.13 0.08 0.05 0.04 0.03 0.02 0.02 0.01 0.01 0.01 0.02 0.03 0.05 0.07 0.09 0.11 0.15 0.17 0.16 0.14 0.16 0.18 0.34 0.60
0.20 0.24 0.32 0.37 0.42 0.47 0.53 0.56 0.51 0.50 0.52 0.51 0.45 0.46 0.43 0.36 0.29 0.26 0.23 0.19 0.12 0.07 0.06 0.05 0.04 0.04 0.03 0.02 0.01 0.01 0.01 0.01 0.02 0.03 0.06 0.10 0.18 0.22 0.20 0.18 0.18 0.22 0.41
0.19 0.24 0.34 0.42 0.42 0.43 0.53 0.60 0.60 0.57 0.56 0.55 0.51 0.48 0.44 0.41 0.36 0.30 0.26 0.22 0.17 0.13 0.11 0.10 0.09 0.07 0.05 0.04 0.03 0.02 0.01 0.01 0.01 0.02 0.03 0.05 0.09 0.17 0.23 0.23 0.23 0.19 0.25
0.20 0.25 0.32 0.44 0.46 0.47 0.55 0.65 0.67 0.66 0.63 0.61 0.57 0.50 0.45 0.40 0.36 0.32 0.28 0.22 0.17 0.12 0.08 0.07 0.06 0.04 0.03 0.03 0.03 0.02 0.01 0.00 0.00 0.01 0.02 0.04 0.05 0.09 0.17 0.24 0.26 0.20 0.18
0.20 0.23 0.31 0.45 0.50 0.55 0.59 0.63 0.63 0.59 0.61 0.60 0.58 0.56 0.50 0.46 0.41 0.37 0.33 0.27 0.20 0.12 0.07 0.05 0.04 0.04 0.04 0.03 0.04 0.02 0.01 0.00 0.00 0.00 0.00 0.01 0.03 0.05 0.09 0.19 0.27 0.26 0.21
0.19 0.20 0.24 0.38 0.49 0.53 0.54 0.55 0.54 0.53 0.55 0.59 0.55 0.56 0.56 0.52 0.50 0.43 0.35 0.31 0.25 0.18 0.11 0.06 0.05 0.06 0.06 0.06 0.08 0.11 0.05 0.01 0.00 0.00 0.00 0.00 0.01 0.03 0.06 0.11 0.21 0.27 0.27
0.17 0.18 0.21 0.31 0.44 0.50 0.54 0.65 0.68 0.69 0.71 0.70 0.66 0.58 0.54 0.54 0.53 0.52 0.43 0.34 0.30 0.25 0.17 0.09 0.07 0.08 0.10 0.07 0.09 0.24 0.31 0.16 0.05 0.00 0.00 0.00 0.01 0.01 0.03 0.07 0.14 0.22 0.29
0.13 0.17 0.20 0.30 0.42 0.49 0.55 0.64 0.68 0.66 0.66 0.64 0.60 0.57 0.52 0.49 0.52 0.50 0.48 0.42 0.34 0.29 0.23 0.15 0.09 0.09 0.14 0.14 0.11 0.14 0.23 0.28 0.30 0.13 0.01 0.01 0.02 0.02 0.02 0.03 0.07 0.14 0.23
0.12 0.18 0.21 0.28 0.41 0.51 0.58 0.59 0.63 0.61 0.57 0.56 0.62 0.64 0.61 0.53 0.48 0.49 0.47 0.44 0.38 0.32 0.28 0.24 0.18 0.14 0.16 0.21 0.20 0.18 0.15 0.14 0.19 0.29 0.13 0.03 0.03 0.03 0.03 0.04 0.05 0.10 0.16
0.12 0.20 0.25 0.28 0.35 0.49 0.60 0.62 0.60 0.58 0.57 0.59 0.61 0.65 0.70 0.64 0.53 0.47 0.45 0.42 0.38 0.33 0.26 0.24 0.24 0.23 0.21 0.21 0.22 0.23 0.26 0.26 0.21 0.27 0.23 0.08 0.04 0.03 0.04 0.04 0.05 0.08 0.13